📊 Raw Sensor Data
Showing records 46826 to 46850 of 85,077 total
| ID | Distance (ft) | Battery V | Battery A | Int Temp (°F) | Int Humid (%) | Ext Temp (°F) | Solar V | RSSI | SNR | Time Stamp |
|---|---|---|---|---|---|---|---|---|---|---|
| 38264 | -- | 3.93 | 7 | 84 | 38 | 78 | 5.10 | -94 | 7 | 04/19/2025 02:00 PM |
| 38263 | -- | 3.93 | 0 | 84 | 38 | 76 | 5.10 | -93 | 6 | 04/19/2025 01:45 PM |
| 38262 | -- | 3.93 | 0 | 82 | 39 | 75 | 5.10 | -94 | 7 | 04/19/2025 01:30 PM |
| 38261 | -- | 3.93 | 0 | 81 | 39 | 74 | 5.10 | -84 | 9 | 04/19/2025 01:15 PM |
| 38260 | -- | 3.96 | 8 | 80 | 39 | 75 | 5.10 | -91 | 8 | 04/19/2025 01:00 PM |
| 38259 | -- | 3.93 | 8 | 79 | 39 | 74 | 5.10 | -88 | 8 | 04/19/2025 12:45 PM |
| 38258 | -- | 3.97 | 8 | 78 | 39 | 74 | 5.10 | -86 | 7 | 04/19/2025 12:30 PM |
| 38257 | -- | 3.93 | 8 | 78 | 39 | 74 | 5.10 | -87 | 9 | 04/19/2025 12:15 PM |
| 38256 | -- | 3.93 | 8 | 76 | 39 | 74 | 5.10 | -87 | 8 | 04/19/2025 12:01 PM |
| 38255 | -- | 3.93 | 0 | 75 | 39 | 73 | 5.10 | -93 | 6 | 04/19/2025 11:45 AM |
| 38254 | -- | 3.93 | 0 | 74 | 39 | 74 | 5.10 | -87 | 7 | 04/19/2025 11:30 AM |
| 38253 | -- | 3.93 | 8 | 72 | 39 | 72 | 5.10 | -100 | 4 | 04/19/2025 11:15 AM |
| 38252 | -- | 3.93 | 8 | 71 | 39 | 72 | 5.10 | -91 | 8 | 04/19/2025 11:00 AM |
| 38251 | -- | 3.93 | 8 | 70 | 38 | 73 | 5.10 | -88 | 9 | 04/19/2025 10:45 AM |
| 38250 | -- | 3.93 | 0 | 69 | 38 | 72 | 5.10 | -85 | 8 | 04/19/2025 10:30 AM |
| 38249 | -- | 3.93 | 7 | 67 | 38 | 70 | 5.10 | -93 | 7 | 04/19/2025 10:15 AM |
| 38248 | 15.2 | 3.98 | 8 | 66 | 38 | 71 | 5.10 | -89 | 8 | 04/19/2025 10:00 AM |
| 38247 | 15.2 | 3.93 | 8 | 64 | 38 | 69 | 5.10 | -89 | 7 | 04/19/2025 09:45 AM |
| 38246 | 15.2 | 3.95 | 9 | 62 | 38 | 68 | 5.10 | -83 | 8 | 04/19/2025 09:30 AM |
| 38245 | -- | 3.92 | 9 | 60 | 38 | 67 | 5.10 | -84 | 9 | 04/19/2025 09:15 AM |
| 38244 | -- | 3.92 | 8 | 57 | 38 | 65 | 5.10 | -85 | 8 | 04/19/2025 09:00 AM |
| 38243 | 15.3 | 3.92 | 0 | 56 | 39 | 64 | 5.10 | -85 | 8 | 04/19/2025 08:45 AM |
| 38242 | 15.2 | 3.92 | 0 | 54 | 39 | 63 | 5.10 | -83 | 8 | 04/19/2025 08:30 AM |
| 38241 | 15.2 | 3.92 | 8 | 53 | 38 | 62 | 5.10 | -89 | 5 | 04/19/2025 08:15 AM |
| 38240 | 15.2 | 4.06 | 61 | 49 | 39 | 62 | 4.50 | -82 | 7 | 04/19/2025 07:45 AM |